Cold Bay, AK

8:43 AM AKDT on April 29, 2017 (GMT -0800)
Cold Bay

Weather History for PACD - November, 2012

Change the Weather History Date:

Thursday, November 1, 2012

  Actual Average Record
Temperature  
Mean Temperature 30 °F 37 °F  
Max Temperature 35 °F 42 °F 52 °F (1994)
Min Temperature 25 °F 32 °F 20 °F (2004)
Degree Days  
Heating Degree Days 35 28  
Month to date heating degree days 35 28  
Since 1 July heating degree days 2301 2135  
Cooling Degree Days 0 0  
Month to date cooling degree days 0 0  
Year to date cooling degree days 0 0  
Moisture  
Dew Point 22 °F    
Average Humidity 0    
Maximum Humidity 0    
Minimum Humidity 0    
Precipitation  
Precipitation 0.07 in 0.16 in 1.06 in (2000)
Month to date precipitation 0.07 0.16  
Year to date precipitation 35.95 32.39  
Snow  
Snow 0.70 in 0.20 in 3.00 in (1981)
Month to date snowfall 0.7 0.2  
Since 1 July snowfall 1.7 2.6  
Since 1 September snowfall 1.7 2.6  
Snow Depth 1.00 in    
Sea Level Pressure  
Sea Level Pressure 29.64 in    
Wind  
Wind Speed 26 mph (North)    
Max Wind Speed 39 mph    
Max Gust Speed 48 mph    
Visibility 5 miles    
Events Fog , Snow    
T = Trace of Precipitation, MM = Missing Value Source: NWS Daily Summary

Daily Weather History Graph

Daily Weather History Graph

Search for Another Location

Airport or City:

Trip Planner

Search our weather history database for the weather conditions in past years. The results will help you decide how hot, cold, wet, or windy it might be!

Date:

Astronomy

Nov. 01, 2012 Rise Set
Actual Time 9:56 AM AKDT 7:11 PM AKDT
Civil Twilight 9:17 AM AKDT 7:50 PM AKDT
Nautical Twilight 8:34 AM AKDT 8:33 PM AKDT
Astronomical Twilight 7:52 AM AKDT 9:15 PM AKDT
Moon 8:54 PM AKDT (11/1) 1:03 PM AKDT (11/1)
Length of Visible Light 10h 32m
Length of Day
9h 14m
Waning Gibbous, 92% of the Moon is Illuminated
Nov 1
Waning Gibbous
Nov 6
Last Quarter
Nov 13
New
Nov 20
First Quarter
Nov 28
Full

Hourly Weather History & Observations

Time (AKDT) Temp. Windchill Dew Point Humidity Pressure Visibility Wind Dir Wind Speed Gust Speed Precip Events Conditions
12:01 AM 26.6 °F 10.6 °F 23.0 °F 86% 29.75 in 2.0 mi North 28.8 mph 38.0 mph 0.00 in Snow Light Snow
12:08 AM 26.6 °F 12.0 °F 23.0 °F 86% 29.74 in 1.2 mi North 23.0 mph 38.0 mph 0.01 in Snow Light Snow
12:12 AM 26.6 °F 11.1 °F 23.0 °F 86% 29.74 in 3.0 mi North 26.5 mph 34.5 mph 0.01 in Snow Light Snow
12:18 AM 26.6 °F 11.1 °F 23.0 °F 86% 29.74 in 1.8 mi North 26.5 mph 38.0 mph 0.01 in Snow Light Snow
12:28 AM 26.6 °F 9.8 °F 21.2 °F 80% 29.74 in 1.2 mi North 32.2 mph 41.4 mph 0.01 in Snow Light Snow
12:35 AM 26.6 °F 10.3 °F 23.0 °F 86% 29.74 in 2.0 mi North 29.9 mph 41.4 mph 0.01 in Snow Light Snow
12:44 AM 26.6 °F 10.6 °F 21.2 °F 80% 29.73 in 6.0 mi North 28.8 mph 36.8 mph 0.01 in Snow Light Snow
12:53 AM 28.0 °F 11.5 °F 19.9 °F 72% 29.73 in 6.0 mi North 33.4 mph 44.9 mph 0.01 in Snow Light Snow
1:00 AM 26.6 °F 12.0 °F 19.4 °F 74% 29.73 in 6.0 mi North 23.0 mph 44.9 mph 0.00 in Snow Light Snow
1:53 AM 28.0 °F 12.0 °F 16.0 °F 61% 29.73 in 10.0 mi North 31.1 mph 39.1 mph 0.00 in   Overcast
2:53 AM 27.0 °F 11.6 °F 16.0 °F 63% 29.70 in 10.0 mi North 26.5 mph 36.8 mph 0.00 in   Mostly Cloudy
3:53 AM 27.0 °F 12.2 °F 16.0 °F 63% 29.70 in 10.0 mi North 24.2 mph 31.1 mph N/A   Scattered Clouds
4:53 AM 27.0 °F 14.3 °F 17.1 °F 66% 29.69 in 7.0 mi North 17.3 mph 28.8 mph 0.00 in Snow Light Snow
5:37 AM 26.6 °F 12.4 °F 19.4 °F 74% 29.68 in 4.0 mi North 21.9 mph 29.9 mph 0.00 in Snow Light Snow
5:51 AM 24.8 °F 10.3 °F 19.4 °F 80% 29.68 in 10.0 mi NNW 20.7 mph 32.2 mph 0.00 in   Mostly Cloudy
5:53 AM 25.0 °F 10.9 °F 19.0 °F 78% 29.69 in 10.0 mi NNW 19.6 mph 29.9 mph 0.00 in   Mostly Cloudy
6:53 AM 27.0 °F 15.2 °F 21.0 °F 78% 29.67 in 3.0 mi NNE 15.0 mph 26.5 mph 0.00 in Snow Light Snow
7:02 AM 24.8 °F 13.4 °F 21.2 °F 86% 29.67 in 9.0 mi NNE 12.7 mph - 0.00 in   Mostly Cloudy
7:30 AM 26.6 °F 13.8 °F 21.2 °F 80% 29.66 in 2.5 mi NNE 17.3 mph 27.6 mph 0.01 in Snow Light Snow
7:32 AM 26.6 °F 14.3 °F 21.2 °F 80% 29.66 in 3.0 mi NNE 16.1 mph 27.6 mph 0.01 in Snow Light Snow
7:53 AM 26.1 °F 12.7 °F 21.0 °F 81% 29.67 in 9.0 mi North 18.4 mph 21.9 mph 0.01 in   Mostly Cloudy
8:15 AM 24.8 °F 11.1 °F 21.2 °F 86% 29.66 in 2.5 mi NNE 18.4 mph - 0.00 in Snow Light Snow
8:24 AM 26.6 °F 13.1 °F 21.2 °F 80% 29.65 in 1.2 mi NNE 19.6 mph - 0.01 in Snow Light Snow
8:30 AM 24.8 °F 11.5 °F 21.2 °F 86% 29.65 in 3.0 mi North 17.3 mph - 0.01 in Snow Light Snow
8:51 AM 24.8 °F 10.7 °F 21.2 °F 86% 29.65 in 10.0 mi North 19.6 mph 28.8 mph 0.01 in   Mostly Cloudy
8:53 AM 25.0 °F 10.9 °F 21.0 °F 85% 29.65 in 10.0 mi North 19.6 mph - 0.01 in   Mostly Cloudy
9:06 AM 26.6 °F 12.7 °F 21.2 °F 80% 29.65 in 2.5 mi North 20.7 mph - 0.00 in Snow Light Snow
9:19 AM 26.6 °F 13.4 °F 21.2 °F 80% 29.65 in 9.0 mi North 18.4 mph 25.3 mph 0.00 in   Mostly Cloudy
9:31 AM 24.8 °F 11.9 °F 21.2 °F 86% 29.65 in 10.0 mi NNW 16.1 mph 27.6 mph 0.00 in   Mostly Cloudy
9:53 AM 27.0 °F 12.2 °F 21.9 °F 81% 29.66 in 7.0 mi North 24.2 mph 28.8 mph 0.00 in Snow Light Snow
10:21 AM 26.6 °F 14.7 °F 21.2 °F 80% 29.67 in 2.0 mi NNE 15.0 mph 26.5 mph 0.00 in Snow Light Snow
10:26 AM 26.6 °F 14.7 °F 21.2 °F 80% 29.67 in 0.8 mi North 15.0 mph - 0.00 in Snow Light Snow
10:33 AM 26.6 °F 14.3 °F 23.0 °F 86% 29.67 in 0.5 mi North 16.1 mph - 0.01 in Fog , Snow Snow
10:39 AM 24.8 °F 12.4 °F 21.2 °F 86% 29.66 in 1.2 mi NNW 15.0 mph - 0.02 in Snow Light Snow
10:42 AM 24.8 °F 11.9 °F 21.2 °F 86% 29.66 in 3.0 mi NNW 16.1 mph - 0.02 in Snow Light Snow
10:53 AM 26.1 °F 12.3 °F 21.9 °F 84% 29.66 in 10.0 mi North 19.6 mph 24.2 mph 0.02 in   Mostly Cloudy
11:00 AM 26.6 °F 12.0 °F 21.2 °F 80% 29.66 in 2.5 mi North 23.0 mph 32.2 mph 0.00 in Snow Light Snow
11:02 AM 26.6 °F 12.0 °F 21.2 °F 80% 29.66 in 1.2 mi NNW 23.0 mph 32.2 mph 0.00 in Snow Light Snow
11:05 AM 26.6 °F 12.4 °F 23.0 °F 86% 29.66 in 0.8 mi NNW 21.9 mph 32.2 mph 0.00 in Snow Light Snow
11:08 AM 26.6 °F 12.7 °F 23.0 °F 86% 29.66 in 2.0 mi NNW 20.7 mph 31.1 mph 0.00 in Snow Light Snow
11:13 AM 26.6 °F 14.3 °F 23.0 °F 86% 29.66 in 2.0 mi NNW 16.1 mph - 0.00 in Snow Light Snow
11:21 AM 26.6 °F 14.3 °F 23.0 °F 86% 29.66 in 2.0 mi NNW 16.1 mph - 0.00 in Snow Light Snow
11:35 AM 26.6 °F 15.7 °F 24.8 °F 93% 29.66 in 9.0 mi North 12.7 mph - 0.00 in   Overcast
11:53 AM 28.0 °F 14.6 °F 21.0 °F 75% 29.65 in 10.0 mi North 20.7 mph - 0.00 in   Scattered Clouds
12:27 PM 26.6 °F 12.7 °F 23.0 °F 86% 29.65 in 1.5 mi North 20.7 mph 28.8 mph 0.00 in Snow Light Snow
12:31 PM 26.6 °F 13.1 °F 23.0 °F 86% 29.65 in 0.8 mi North 19.6 mph 28.8 mph 0.01 in Snow Light Snow
12:38 PM 26.6 °F 14.7 °F 23.0 °F 86% 29.64 in 1.0 mi North 15.0 mph 28.8 mph 0.01 in Snow Light Snow
12:44 PM 26.6 °F 13.1 °F 24.8 °F 93% 29.64 in 3.0 mi North 19.6 mph - 0.01 in Snow Light Snow
12:48 PM 28.4 °F 14.1 °F 24.8 °F 86% 29.64 in 1.5 mi North 24.2 mph 28.8 mph 0.01 in Snow Light Snow
12:53 PM 28.0 °F 13.0 °F 24.1 °F 85% 29.65 in 1.5 mi North 26.5 mph 31.1 mph 0.02 in Snow Light Snow
1:00 PM 26.6 °F 13.8 °F 24.8 °F 93% 29.64 in 2.5 mi North 17.3 mph - 0.00 in Snow Light Snow
1:04 PM 28.4 °F 17.5 °F 24.8 °F 86% 29.63 in 8.0 mi North 13.8 mph - 0.00 in   Overcast
1:53 PM 28.9 °F 14.5 °F 25.0 °F 85% 29.63 in 8.0 mi North 25.3 mph 32.2 mph 0.00 in   Overcast
2:04 PM 28.4 °F 13.5 °F 24.8 °F 86% 29.62 in 1.8 mi North 26.5 mph 32.2 mph 0.00 in Snow Light Snow
2:11 PM 28.4 °F 15.1 °F 24.8 °F 86% 29.62 in 1.2 mi North 20.7 mph 31.1 mph 0.00 in Snow Light Snow
2:22 PM 30.2 °F 18.1 °F 24.8 °F 80% 29.61 in 3.0 mi NNE 18.4 mph 26.5 mph 0.00 in Snow Light Snow
2:30 PM 30.2 °F 18.1 °F 24.8 °F 80% 29.61 in 10.0 mi NNE 18.4 mph - 0.00 in   Mostly Cloudy
2:53 PM 28.9 °F 14.5 °F 21.9 °F 75% 29.61 in 7.0 mi North 25.3 mph 34.5 mph 0.00 in   Overcast
3:20 PM 28.4 °F 15.8 °F 23.0 °F 80% 29.60 in 4.0 mi North 18.4 mph 31.1 mph 0.00 in Snow Light Snow
3:29 PM 28.4 °F 12.7 °F 23.0 °F 80% 29.60 in 2.0 mi NNE 29.9 mph 35.7 mph 0.00 in Snow Light Snow
3:36 PM 28.4 °F 15.8 °F 23.0 °F 80% 29.60 in 1.2 mi North 18.4 mph 35.7 mph 0.00 in Snow Light Snow
3:40 PM 28.4 °F 14.7 °F 23.0 °F 80% 29.60 in 3.0 mi North 21.9 mph 28.8 mph 0.00 in Snow Light Snow
3:53 PM 28.9 °F 15.1 °F 24.1 °F 82% 29.60 in 5.0 mi North 23.0 mph 32.2 mph 0.00 in Snow Light Snow
4:29 PM 28.4 °F 16.2 °F 24.8 °F 86% 29.59 in 1.8 mi North 17.3 mph 34.5 mph 0.00 in Snow Light Snow
4:33 PM 28.4 °F 15.1 °F 24.8 °F 86% 29.59 in 2.0 mi North 20.7 mph 28.8 mph 0.00 in Snow Light Snow
4:53 PM 28.9 °F 14.5 °F 24.1 °F 82% 29.60 in 1.8 mi North 25.3 mph 34.5 mph 0.01 in Snow Light Snow
5:00 PM 28.4 °F 15.1 °F 24.8 °F 86% 29.59 in 0.5 mi North 20.7 mph 34.5 mph 0.00 in Fog , Snow Snow
5:07 PM 28.4 °F 16.2 °F 24.8 °F 86% 29.58 in 1.2 mi North 17.3 mph 26.5 mph 0.00 in Snow Light Snow
5:13 PM 28.4 °F 13.8 °F 24.8 °F 86% 29.58 in 3.0 mi North 25.3 mph 36.8 mph 0.00 in Snow Light Snow
5:53 PM 30.0 °F 15.7 °F 21.9 °F 72% 29.58 in 7.0 mi North 26.5 mph 39.1 mph 0.00 in   Overcast
6:50 PM 30.2 °F 14.7 °F 21.2 °F 69% 29.57 in 8.0 mi North 32.2 mph 40.3 mph 0.00 in   Overcast
6:53 PM 30.0 °F 14.9 °F 21.9 °F 72% 29.57 in 9.0 mi North 29.9 mph 40.3 mph 0.00 in   Overcast
7:53 PM 30.9 °F 15.7 °F 23.0 °F 72% 29.56 in 10.0 mi North 32.2 mph 39.1 mph 0.00 in   Overcast
8:53 PM 30.9 °F 15.3 °F 24.1 °F 76% 29.55 in 7.0 mi North 34.5 mph 44.9 mph 0.00 in Snow Light Snow
9:53 PM 32.0 °F 17.2 °F 25.0 °F 75% 29.54 in 10.0 mi North 32.2 mph 42.6 mph 0.00 in   Overcast
10:08 PM 33.8 °F 19.9 °F 24.8 °F 70% 29.53 in 10.0 mi North 31.1 mph 41.4 mph N/A   Overcast
10:53 PM 33.1 °F 18.7 °F 25.0 °F 72% 29.53 in 10.0 mi North 32.2 mph 42.6 mph N/A   Overcast
11:24 PM 33.8 °F 19.6 °F 26.6 °F 75% 29.51 in 10.0 mi North 32.2 mph 44.9 mph N/A   Overcast
11:53 PM 34.0 °F 18.7 °F 25.0 °F 70% 29.52 in 10.0 mi North 39.1 mph 48.3 mph N/A   Overcast